Lapse_Rate
3.1 3.2 3.8 4.5 5.0 5.3 5.6 5.7 6.3 6.3 6.4 6.5 6.5 6.3 5.8 6.1 7.2 7.2 7.2 7.3 7.4 7.6 7.8 7.6 7.5 7.3 7.2 6.8 6.7 6.1 6.1 6.8 6.1 6.5 6.3 6.6 6.6 6.5 6.9 7.0 7.0 6.8 6.3 6.8 6.6 6.0 5.8
3.1 3.1 3.5 4.3 4.9 5.3 5.7 5.8 6.4 6.3 6.6 6.8 7.0 6.9 6.4 6.8 7.5 7.4 7.3 7.4 7.8 7.9 7.9 7.8 7.6 7.3 7.1 7.4 7.2 6.4 6.3 6.4 6.3 6.6 6.4 6.5 6.7 6.7 6.7 6.8 6.9 6.7 6.8 6.4 6.7 5.6 6.1
3.0 3.1 3.2 4.0 4.8 5.3 5.6 5.9 6.5 6.3 6.4 6.8 7.1 7.2 6.4 6.6 7.2 7.8 7.5 7.8 8.1 8.2 8.1 8.1 7.9 7.1 7.0 7.1 7.2 7.1 6.2 6.4 6.4 6.4 6.4 6.5 6.9 6.4 6.6 6.9 6.9 6.7 7.4 6.4 6.6 5.8 6.3
3.0 3.1 3.2 3.8 4.5 5.3 5.7 6.0 6.6 6.4 6.3 6.8 7.0 7.2 7.0 6.9 6.5 7.6 7.9 8.0 8.0 8.0 7.9 7.9 7.6 7.3 7.5 7.2 7.3 7.1 6.3 6.2 6.4 6.3 6.4 6.7 6.8 6.4 6.4 6.6 6.7 6.8 6.9 6.7 6.2 6.3 6.3
3.0 2.9 3.1 4.0 4.4 5.3 5.6 5.9 6.6 6.4 6.2 6.5 6.8 7.2 7.1 7.1 6.6 7.1 7.9 8.1 8.1 7.9 7.8 7.9 7.6 7.3 7.1 7.4 7.5 6.8 6.3 6.3 6.0 6.5 6.3 6.3 6.3 6.3 6.3 6.5 6.7 6.6 6.5 6.5 6.4 6.6 7.2
2.9 2.8 2.8 3.9 4.2 5.2 5.6 5.9 6.3 6.4 6.4 6.5 6.6 6.9 7.0 7.0 6.7 6.7 7.3 7.7 7.8 7.8 7.9 7.8 7.6 7.2 7.2 7.4 7.2 7.4 6.6 6.4 6.2 6.3 6.1 6.3 6.4 6.2 6.1 6.3 6.3 6.5 6.7 6.6 6.7 6.6 6.8
2.9 2.8 3.0 4.0 4.3 4.9 5.4 5.8 6.3 6.5 6.4 6.5 6.4 6.6 6.6 7.2 6.8 6.4 6.9 7.5 7.7 7.6 7.6 7.5 7.5 7.0 7.1 7.3 7.4 7.3 7.0 6.7 6.3 6.3 6.4 6.3 6.2 6.1 6.4 6.4 6.7 7.1 7.2 7.1 6.9 7.1 7.0
2.9 2.7 2.8 3.8 4.3 4.9 5.4 5.7 6.3 6.5 6.3 6.5 6.5 6.4 6.6 7.0 6.7 6.3 6.4 7.0 7.2 7.3 7.5 7.2 7.3 7.5 7.4 7.3 7.3 6.9 6.8 6.3 6.4 6.0 6.3 6.2 6.0 6.2 6.6 6.9 7.2 7.1 7.2 7.2 7.3 7.4 7.4
3.1 2.7 2.7 3.5 4.2 4.9 5.4 5.8 6.1 6.5 6.5 6.5 6.5 6.4 6.6 6.8 6.8 6.7 6.6 6.7 6.9 6.9 6.9 7.1 6.9 7.0 6.9 6.3 6.7 6.9 6.9 6.6 6.3 6.4 6.3 6.1 6.1 6.3 6.3 6.4 7.0 6.9 7.0 7.2 7.3 7.1 6.8
3.0 2.8 2.6 3.3 3.7 4.8 5.2 5.5 5.9 6.4 6.5 6.4 6.6 6.3 6.5 6.6 6.7 7.1 7.2 6.8 6.7 6.9 7.1 7.1 6.3 6.5 6.4 6.5 6.6 6.6 6.6 6.6 6.5 6.3 6.4 6.2 6.6 6.2 6.2 6.4 6.8 6.7 7.1 7.3 7.4 7.2 6.7
2.9 2.6 2.8 3.1 3.6 4.3 5.1 5.5 5.8 6.1 6.4 6.5 6.4 6.3 6.3 6.4 6.7 6.7 6.9 6.8 6.5 6.6 6.2 7.1 6.5 6.7 6.5 6.4 6.6 6.7 6.5 6.3 6.2 6.3 6.3 5.7 6.0 6.1 6.1 6.5 6.9 6.9 7.2 7.3 7.3 6.8 6.7
3.1 2.9 2.9 3.1 3.6 4.2 5.0 5.5 5.5 6.0 6.3 6.5 6.3 6.3 6.2 6.2 6.2 6.6 6.8 6.7 6.7 6.7 6.3 7.0 6.9 6.4 6.6 6.7 6.2 6.0 6.3 6.5 6.0 5.8 5.7 5.9 6.1 5.9 6.2 6.7 6.7 6.6 7.0 7.2 7.1 7.0 6.2
3.0 3.0 2.9 3.2 3.7 4.1 5.0 5.4 5.5 5.8 6.2 6.5 6.5 6.3 6.1 6.3 6.2 6.4 6.6 6.9 6.2 5.9 6.5 6.4 6.6 6.8 6.8 6.6 6.4 6.5 6.6 6.2 5.9 5.6 5.6 5.9 5.9 6.0 6.3 6.6 6.6 6.4 7.0 6.3 6.1 5.7 5.3
3.2 3.1 2.9 3.1 3.5 3.9 4.7 5.4 5.8 5.7 6.3 6.4 6.6 6.4 6.3 6.3 6.7 6.6 6.3 6.9 5.6 5.4 6.1 6.1 6.2 6.5 6.8 6.6 6.3 6.1 5.8 5.7 5.9 5.7 5.6 5.6 5.5 5.8 5.9 6.4 6.3 6.4 7.0 6.7 5.8 5.1 5.7
3.4 3.3 3.2 3.2 3.3 3.8 4.8 5.3 5.7 5.9 6.2 6.3 6.6 6.7 6.3 6.2 6.6 7.1 6.9 6.9 6.1 6.2 6.0 6.0 6.0 6.3 6.5 6.6 6.8 6.7 6.2 5.7 5.8 5.7 6.4 5.8 5.8 6.0 6.1 6.2 6.1 6.3 6.4 6.6 6.8 7.0 6.1
3.5 3.2 3.3 3.3 3.1 3.7 4.6 5.1 6.1 6.1 6.1 6.4 6.4 6.6 6.5 6.7 6.6 6.8 6.9 6.8 5.8 6.3 6.1 5.8 5.9 6.1 6.4 6.5 6.8 6.5 6.2 5.9 6.0 6.1 6.4 6.3 6.1 6.2 6.1 6.1 6.2 6.4 6.5 6.5 6.8 5.7 6.4
3.5 3.2 3.4 3.5 3.1 3.6 4.2 5.1 6.2 6.2 6.1 6.2 6.5 6.8 6.5 6.5 6.5 6.5 6.6 6.6 6.1 6.2 6.3 6.2 6.1 6.1 6.3 6.3 6.4 6.3 6.5 6.1 6.0 6.2 6.2 6.1 6.1 5.6 6.0 6.1 6.1 6.2 6.2 6.6 7.0 7.1 5.8
3.6 3.3 3.4 3.4 3.4 3.5 3.9 4.7 5.7 6.6 6.1 6.4 6.6 6.5 6.5 6.3 6.0 6.4 6.2 6.2 6.4 6.4 6.3 6.3 6.4 6.4 6.2 6.4 6.4 6.3 6.0 6.2 6.2 6.2 6.2 6.1 6.2 5.6 5.9 6.1 6.0 6.1 6.2 6.3 7.0 7.1 7.2
3.5 3.5 3.4 3.4 3.4 3.6 4.0 4.6 5.0 5.9 6.6 6.3 6.3 6.3 6.5 6.4 5.9 5.9 6.2 6.1 6.1 6.3 6.3 6.5 6.5 6.5 6.4 6.4 6.3 6.4 6.4 6.4 6.4 6.5 6.4 6.5 6.0 5.5 5.5 5.3 5.5 5.9 6.2 6.6 6.6 6.7 7.0
3.4 3.4 3.4 3.6 3.6 3.6 4.0 4.3 4.9 5.5 6.1 6.2 6.3 6.4 6.4 6.3 6.1 5.8 6.0 6.0 6.0 6.1 6.4 6.5 6.5 6.4 6.3 6.1 6.2 6.3 6.5 6.5 6.5 6.6 6.6 6.5 6.5 6.6 6.1 6.6 6.5 6.2 6.4 6.1 6.2 6.1 6.7
3.5 3.3 3.3 3.5 3.4 3.4 3.7 4.2 4.7 5.4 6.0 6.1 6.2 6.6 6.5 6.2 6.3 6.0 6.0 5.9 5.8 5.8 6.1 6.2 6.3 6.4 6.1 6.1 6.1 6.2 6.1 6.3 6.4 6.4 6.4 6.4 6.6 6.5 6.6 6.6 6.5 6.4 6.2 6.0 6.1 6.1 6.2
3.7 3.3 3.4 3.4 3.5 3.2 3.6 4.1 4.6 5.1 5.6 6.3 6.0 6.4 6.5 6.6 6.4 6.3 6.1 6.0 6.1 5.8 5.8 5.9 6.0 6.1 6.2 6.2 6.3 6.2 6.3 6.2 6.3 6.3 6.2 6.3 6.3 6.4 6.5 6.6 6.5 6.4 6.4 6.1 6.0 6.1 6.1
3.8 3.5 3.7 3.7 3.5 3.4 3.7 4.2 4.5 5.2 5.5 6.1 6.0 6.1 6.5 6.4 6.4 6.0 6.0 5.9 6.0 6.2 6.0 6.0 6.0 6.0 6.1 6.2 6.2 6.2 6.1 6.1 6.1 6.1 6.1 6.0 6.0 5.9 6.0 6.1 6.1 6.2 7.2 7.0 6.9 6.7 6.9
4.0 3.6 3.9 3.8 3.7 3.6 3.7 3.8 4.4 4.9 5.8 6.6 5.9 6.0 6.5 6.3 6.3 6.1 6.3 6.2 6.2 6.4 6.2 6.1 6.0 6.1 6.2 6.1 6.1 6.2 6.1 6.1 6.1 5.9 5.9 5.7 5.6 5.5 5.6 5.7 4.7 6.7 6.9 6.9 6.9 6.9 6.8
4.0 3.7 3.7 4.0 3.9 3.8 3.8 4.0 4.0 4.4 5.0 5.5 5.6 6.2 6.4 6.1 6.3 6.1 6.3 6.4 6.2 6.2 6.2 6.2 6.1 6.0 6.0 5.9 6.0 6.0 6.0 6.0 6.0 6.0 5.8 5.7 5.8 5.7 5.5 5.5 6.2 6.9 7.0 6.7 6.7 7.1 7.1
3.9 3.7 3.8 4.0 4.0 4.0 3.9 4.0 4.1 4.4 4.6 5.2 5.7 6.2 6.1 6.0 6.2 6.3 6.2 6.3 6.3 6.2 6.1 6.1 6.0 6.0 6.0 5.9 6.1 6.3 6.2 6.2 6.2 5.7 5.7 5.6 5.6 5.4 5.7 5.6 5.3 6.3 6.5 6.5 6.4 6.6 6.9
3.9 3.8 3.9 4.2 4.2 4.2 4.0 4.1 4.3 4.5 5.1 5.8 6.0 6.3 6.2 5.7 5.5 5.7 5.9 5.9 6.1 6.0 6.0 6.0 5.9 6.0 5.9 6.0 6.1 6.3 6.3 6.2 6.1 6.1 5.7 5.6 5.6 5.5 5.7 5.5 5.8 6.3 6.2 6.3 6.1 6.6 6.7
4.2 3.9 4.1 4.3 4.2 3.9 3.9 4.1 4.4 4.7 5.3 5.7 6.1 6.1 6.2 5.8 5.4 5.4 5.6 5.9 5.9 5.9 5.7 5.6 5.8 5.8 5.9 5.9 5.9 6.3 6.2 6.2 6.1 6.2 6.2 6.1 5.7 5.7 5.7 5.5 5.5 6.3 6.1 6.1 6.3 6.3 6.3
4.8 4.3 4.1 4.0 4.5 4.3 4.1 4.4 4.9 5.4 6.0 5.9 5.8 6.0 5.8 5.8 5.6 5.7 5.5 5.5 5.7 5.7 5.6 5.2 5.5 5.5 5.6 5.7 5.7 6.0 6.2 6.1 6.2 6.2 6.3 6.3 6.3 6.0 6.2 6.3 6.3 6.1 6.2 6.3 6.2 6.1 6.1
Wind_Speed
19 20 20 22 23 22 22 23 24 25 28 29 29 29 24 22 17 9 5 5 5 5 4 5 5 3 5 4 9 18 14 33 23 16 15 10 12 6 7 5 8 7 7 11 8 9 9
18 20 21 21 21 23 23 24 24 25 28 28 30 31 27 21 12 3 3 1 3 5 4 6 5 2 1 6 8 16 10 17 18 16 16 9 10 10 5 9 5 8 10 6 2 11 7
17 18 19 21 22 22 22 22 23 26 27 28 30 30 26 18 10 6 3 4 3 3 2 5 4 2 3 11 3 12 6 1 10 17 13 9 6 12 7 5 5 4 7 3 8 6 4
16 18 19 20 22 22 23 23 23 25 27 27 27 29 20 15 12 6 5 4 5 6 5 5 3 1 5 7 14 10 2 2 1 10 10 10 4 3 2 3 6 5 6 7 9 7 3
15 17 20 21 22 23 22 23 24 24 25 25 26 25 17 12 10 8 5 5 8 9 4 1 1 2 6 5 3 3 3 3 5 8 9 5 4 3 3 6 5 5 5 8 10 10 6
15 17 19 20 22 23 24 23 24 24 23 23 24 21 20 11 9 8 9 7 4 3 1 5 3 1 4 6 4 6 3 3 4 11 14 9 4 3 5 6 13 16 10 7 9 9 6
13 15 18 19 20 21 23 24 22 23 24 22 20 19 17 11 7 7 7 3 4 3 1 4 6 7 5 9 7 4 6 4 3 10 10 10 6 13 12 3 5 7 8 3 7 6 8
12 14 17 18 20 21 22 24 24 24 22 21 20 17 15 12 10 8 3 3 3 2 4 5 3 2 8 3 2 3 4 6 3 8 11 6 5 5 8 6 6 4 7 11 1 5 12
11 13 16 18 19 20 21 22 23 23 23 21 20 17 15 11 10 6 4 2 4 5 2 2 1 3 2 2 6 4 5 1 10 8 11 8 7 7 8 5 8 6 6 5 6 3 4
11 12 15 16 19 20 22 23 23 23 23 22 20 19 13 12 4 2 1 2 3 2 2 11 7 5 3 5 3 0 4 5 2 7 9 2 4 8 7 8 5 4 5 4 12 6 4
10 12 14 16 18 21 22 23 24 24 23 22 23 19 10 2 3 2 2 1 3 2 5 8 6 2 5 3 6 9 5 1 6 10 1 2 3 4 3 2 4 5 5 7 4 4 4
9 12 14 16 18 21 23 25 26 27 28 25 24 17 8 2 3 2 1 4 1 4 4 1 4 3 6 6 3 4 3 3 1 6 8 4 3 4 3 3 3 2 8 8 5 3 1
8 11 14 16 18 21 24 26 27 29 30 30 27 11 4 1 3 7 1 2 4 5 4 2 3 0 2 4 4 3 3 5 3 4 3 2 3 2 3 4 5 3 7 2 2 1 5
7 11 14 17 20 21 25 29 31 32 33 32 28 5 6 3 10 7 2 1 8 3 3 2 2 4 3 1 3 4 4 3 3 4 4 4 4 2 1 4 3 7 5 5 6 4 4
7 10 14 16 19 22 25 27 31 32 32 35 23 2 2 3 10 4 2 5 4 3 3 2 1 2 2 3 5 6 1 4 3 3 5 4 2 2 0 2 3 3 3 2 2 2 3
7 10 14 16 19 21 25 28 30 32 32 33 2 1 1 11 12 2 3 4 3 4 3 2 3 0 1 3 2 7 7 4 5 5 3 5 5 1 2 1 2 2 2 2 2 2 4
6 9 13 16 19 22 25 28 30 33 34 26 2 2 2 12 2 0 3 4 4 4 0 0 4 1 3 3 4 3 3 4 6 9 6 7 3 3 5 5 5 4 2 3 2 4 3
4 8 12 16 19 21 22 26 30 31 32 8 3 2 4 4 1 2 2 4 4 0 3 3 1 2 1 1 2 1 4 1 2 6 6 5 4 3 4 4 8 2 4 4 4 4 2
3 7 11 15 18 19 21 25 28 30 23 3 3 2 1 2 1 1 3 2 1 1 0 2 1 1 1 2 2 3 4 3 5 2 5 4 2 3 3 1 6 4 5 4 2 1 4
3 6 10 14 16 18 21 25 29 33 29 2 1 3 1 2 2 2 4 5 4 2 2 2 1 2 1 1 1 3 2 1 3 2 0 2 3 5 7 4 5 5 11 11 6 2 3
0 5 9 13 16 18 22 24 29 33 34 3 3 2 2 2 3 3 1 1 3 4 2 3 2 4 4 3 4 4 3 2 2 1 1 3 3 2 2 3 3 3 5 13 10 8 5
1 4 9 13 15 18 21 23 26 32 26 3 3 3 3 3 5 3 1 3 2 2 4 4 3 6 4 2 2 4 6 4 4 2 3 2 2 2 3 4 2 4 7 7 8 10 7
2 3 8 11 14 16 18 22 22 27 18 3 3 3 2 5 5 1 2 3 4 2 1 2 2 2 2 2 1 3 4 2 6 7 5 4 4 2 2 2 3 7 13 15 7 6 13
3 1 4 7 10 12 16 17 21 21 17 2 2 2 2 3 3 4 6 4 7 5 0 3 4 1 1 3 2 3 5 5 5 4 4 5 6 3 3 2 1 6 3 8 16 9 9
5 3 1 6 7 11 15 16 17 18 18 3 2 3 3 3 4 6 11 4 6 5 2 1 3 1 4 1 2 2 1 1 3 1 1 2 4 2 2 3 7 3 3 5 6 7 13
7 5 1 4 5 9 12 14 14 13 15 3 1 1 2 1 2 5 3 4 2 4 4 3 1 3 3 2 2 3 3 4 3 3 1 2 3 4 1 3 4 3 1 2 3 4 2
8 5 2 2 4 7 10 12 12 10 11 3 1 3 2 2 3 4 3 3 5 3 3 2 4 2 3 1 0 2 3 2 3 5 4 2 1 5 4 3 6 6 4 2 3 4 4
9 6 4 1 2 4 9 11 10 9 10 4 3 1 3 2 6 3 5 2 4 3 2 4 1 3 1 2 3 3 3 4 2 4 6 6 5 3 4 3 7 3 3 3 3 1 3
8 5 4 3 2 4 8 12 9 10 11 1 1 1 2 2 5 3 9 13 9 2 1 3 3 2 3 2 1 2 2 1 5 3 1 3 6 4 7 5 5 5 1 3 5 4 3
Wind_Direction
1 0 358 0 357 352 349 351 356 349 344 347 349 347 342 337 331 315 316 288 307 321 341 348 353 354 119 143 258 282 316 187 188 190 191 189 178 181 168 173 167 222 172 221 222 135 209
360 358 357 360 356 354 355 355 355 348 346 354 354 352 346 345 342 28 24 351 327 353 346 344 4 351 240 236 259 317 256 178 185 179 184 194 183 189 187 174 185 181 232 336 17 169 196
358 358 357 358 354 358 357 355 353 350 353 355 2 357 0 10 54 67 41 2 345 334 320 356 9 236 251 239 225 341 1 24 200 185 183 193 180 191 159 143 209 262 161 274 304 164 176
355 355 357 357 357 358 355 358 353 352 357 357 6 5 12 38 28 44 31 9 342 314 306 281 331 284 257 257 266 279 305 141 57 236 202 198 146 235 124 207 135 167 104 166 225 155 201
354 355 358 356 357 357 0 360 352 353 359 0 4 10 14 30 29 16 16 341 329 324 264 246 183 169 274 333 238 230 156 249 306 163 237 176 143 203 104 126 87 137 168 187 181 193 147
355 356 358 357 357 358 357 0 356 352 359 359 0 9 6 12 29 6 331 313 295 5 129 197 250 256 270 328 318 135 55 359 340 167 207 163 140 120 144 158 182 183 185 184 188 193 171
354 354 357 357 357 358 357 356 358 355 355 355 357 360 2 350 9 358 354 343 28 7 251 176 222 250 248 289 252 92 124 275 224 206 162 175 148 186 178 104 117 127 146 183 210 213 179
354 354 355 358 359 358 358 355 355 354 353 352 350 351 356 350 330 336 1 59 59 217 320 241 348 246 251 278 64 44 10 214 166 143 139 136 171 156 145 175 220 192 173 216 278 202 189
352 352 355 357 356 359 357 355 353 353 352 349 343 340 339 340 315 329 109 96 296 326 232 358 42 309 345 86 79 256 215 171 138 143 145 134 149 155 162 189 210 241 174 200 159 85 18
348 349 354 352 356 359 358 355 351 351 349 346 339 331 327 330 5 244 142 110 344 341 66 355 3 26 30 311 101 219 36 47 121 119 123 79 103 162 182 211 171 243 213 160 138 121 198
344 345 350 350 354 355 354 352 349 347 346 345 336 327 317 252 282 295 212 226 268 73 62 344 327 30 359 28 145 4 9 315 58 110 132 137 103 133 152 186 149 238 126 120 118 106 89
339 340 346 350 351 355 353 349 347 346 344 343 338 324 301 226 164 195 203 311 9 44 64 89 293 222 183 186 96 128 83 30 347 71 53 37 25 45 46 27 45 175 83 53 51 85 17
337 339 342 347 352 355 351 347 347 345 344 341 339 320 253 270 157 160 126 5 30 68 347 280 244 85 26 101 80 65 72 114 122 109 97 79 17 7 38 68 356 277 93 71 11 358 220
335 343 342 347 355 353 351 348 346 346 345 343 337 316 223 220 139 109 89 54 60 329 198 263 227 174 48 88 84 76 100 135 229 96 120 156 165 125 29 139 201 216 135 166 185 201 228
338 347 346 347 352 352 351 350 346 346 343 343 337 118 157 210 131 106 124 49 169 180 308 211 321 264 67 131 122 87 243 155 175 191 138 139 106 143 61 94 210 187 244 199 106 178 76
349 355 352 351 350 353 350 350 348 348 343 341 311 274 156 145 142 110 84 147 188 228 328 257 264 120 117 130 138 180 190 189 143 203 196 150 110 127 158 186 182 193 323 88 14 203 235
358 359 355 357 357 352 351 350 350 349 347 339 80 60 209 147 100 133 120 202 206 212 144 71 338 250 143 157 189 201 88 156 166 192 188 160 116 136 143 205 176 181 193 235 150 160 205
0 359 359 357 358 355 353 352 353 353 351 27 347 62 197 118 132 223 128 186 330 156 218 254 271 7 38 207 132 53 130 104 80 161 164 184 114 141 208 185 213 196 168 209 146 236 218
9 3 359 356 0 359 0 354 353 353 1 339 339 265 172 105 4 64 174 159 280 310 319 327 175 350 356 52 104 100 79 309 35 80 160 174 129 110 119 144 187 196 202 233 39 3 215
25 0 359 359 5 2 2 356 355 351 349 113 16 14 296 194 243 224 181 182 182 216 271 301 122 333 8 39 37 136 115 103 3 106 160 97 146 161 189 204 143 194 182 197 162 205 201
358 3 359 8 9 7 7 0 358 352 348 96 29 20 45 308 334 349 297 104 173 177 249 213 264 227 226 179 173 166 125 119 275 204 16 98 148 114 277 135 123 187 182 183 189 214 164
140 8 7 16 13 11 10 6 4 359 353 75 54 3 347 285 288 294 331 210 91 106 160 227 205 268 239 59 178 170 139 163 192 206 164 51 175 98 305 230 184 248 242 223 215 218 244
151 13 21 23 20 17 13 12 16 12 18 49 331 323 312 286 311 30 12 7 46 72 308 219 280 346 109 159 119 130 152 169 182 154 183 136 129 87 260 23 340 297 228 213 216 203 211
153 16 22 26 22 22 19 14 16 11 25 104 314 313 351 287 25 4 4 6 13 340 78 313 39 32 268 299 328 26 52 57 111 118 150 145 144 111 203 44 261 246 169 197 214 225 207
174 199 14 30 18 20 15 15 14 10 9 80 2 37 14 319 323 356 355 350 329 312 244 88 20 264 320 4 97 108 15 10 194 152 275 169 146 182 145 209 279 269 198 188 173 263 217
189 216 248 32 27 26 17 18 17 13 9 31 10 111 70 38 288 311 311 310 327 334 322 123 59 357 48 59 246 194 193 206 183 183 131 9 141 133 183 256 253 288 219 231 108 278 332
198 232 270 10 25 23 15 9 1 20 6 30 335 19 79 329 285 5 343 310 340 357 302 333 356 38 58 93 286 202 239 214 182 190 171 156 177 194 223 253 282 251 195 111 118 260 315
208 238 251 233 29 20 14 7 22 13 4 46 267 88 103 301 284 302 331 344 334 350 304 351 325 353 70 152 164 247 169 239 213 182 169 166 178 183 195 217 265 183 90 187 208 37 85
211 245 211 203 16 9 11 28 24 354 348 71 312 318 121 182 251 265 276 267 245 196 99 314 318 330 358 249 38 307 269 191 182 237 84 184 183 189 178 211 238 205 239 190 157 152 166